TimePDT,TemperatureF,Dew PointF,Humidity,Sea Level PressureIn,VisibilityMPH,Wind Direction,Wind SpeedMPH,Gust SpeedMPH,PrecipitationIn,Events,Conditions,WindDirDegrees,DateUTC
12:58 AM,55.4,49.8,81,30.18,10.0,SW,6.9,-,N/A,,Overcast,220,2013-06-08 07:58:00
1:58 AM,53.4,48.7,84,30.18,10.0,SSW,5.8,-,N/A,,Overcast,210,2013-06-08 08:58:00
2:58 AM,52.7,48.4,85,30.19,10.0,SSW,3.5,-,N/A,,Overcast,210,2013-06-08 09:58:00
3:53 AM,51.8,48.2,88,30.18,10.0,SW,6.9,-,N/A,,Overcast,220,2013-06-08 10:53:00
3:58 AM,52.3,47.7,84,30.19,10.0,SW,6.9,-,N/A,,Overcast,220,2013-06-08 10:58:00
4:58 AM,52.3,46.4,80,30.19,10.0,WSW,9.2,-,N/A,,Overcast,240,2013-06-08 11:58:00
5:58 AM,51.6,45.7,80,30.21,10.0,WSW,5.8,-,N/A,,Overcast,240,2013-06-08 12:58:00
6:58 AM,51.8,45.7,80,30.21,10.0,SSW,5.8,-,N/A,,Overcast,200,2013-06-08 13:58:00
7:18 AM,51.8,46.4,82,30.20,10.0,WSW,5.8,-,N/A,,Overcast,240,2013-06-08 14:18:00
7:58 AM,52.3,45.9,79,30.20,10.0,SSW,1.2,-,N/A,,Overcast,210,2013-06-08 14:58:00
8:58 AM,53.4,46.2,77,30.20,10.0,SSW,3.5,-,N/A,,Overcast,210,2013-06-08 15:58:00
9:23 AM,53.6,46.4,77,30.19,10.0,Variable,3.5,-,N/A,,Overcast,0,2013-06-08 16:23:00
9:58 AM,56.3,47.8,73,30.19,10.0,Variable,3.5,-,N/A,,Overcast,0,2013-06-08 16:58:00
10:58 AM,59.7,49.1,68,30.19,10.0,Variable,5.8,-,N/A,,Mostly Cloudy,0,2013-06-08 17:58:00
11:53 AM,62.6,50.0,63,30.18,10.0,Variable,4.6,-,N/A,,Scattered Clouds,0,2013-06-08 18:53:00
11:58 AM,62.2,50.2,65,30.19,10.0,Variable,3.5,-,N/A,,Scattered Clouds,0,2013-06-08 18:58:00
12:58 PM,64.8,49.8,58,30.18,10.0,Variable,3.5,-,N/A,,Mostly Cloudy,0,2013-06-08 19:58:00
1:58 PM,66.4,50.2,56,30.17,10.0,West,9.2,-,N/A,,Partly Cloudy,270,2013-06-08 20:58:00
2:58 PM,67.3,49.5,53,30.17,10.0,West,12.7,-,N/A,,Clear,260,2013-06-08 21:58:00
3:58 PM,67.6,50.5,54,30.16,10.0,WNW,8.1,-,N/A,,Scattered Clouds,300,2013-06-08 22:58:00
4:58 PM,68.9,51.3,53,30.15,10.0,Variable,4.6,-,N/A,,Scattered Clouds,0,2013-06-08 23:58:00
5:58 PM,69.1,52.0,54,30.13,10.0,NNE,6.9,-,N/A,,Partly Cloudy,20,2013-06-09 00:58:00
6:58 PM,66.9,51.6,58,30.13,10.0,NNE,6.9,-,N/A,,Clear,20,2013-06-09 01:58:00
7:58 PM,65.1,50.7,60,30.12,10.0,NNE,10.4,-,N/A,,Clear,30,2013-06-09 02:58:00
8:58 PM,61.5,49.5,65,30.12,10.0,North,6.9,-,N/A,,Partly Cloudy,360,2013-06-09 03:58:00
9:58 PM,61.7,50.2,66,30.12,10.0,North,5.8,-,N/A,,Overcast,350,2013-06-09 04:58:00
10:58 PM,60.3,49.5,68,30.13,10.0,NNW,8.1,-,N/A,,Overcast,340,2013-06-09 05:58:00
11:58 PM,58.3,49.5,72,30.12,10.0,WNW,8.1,-,N/A,,Overcast,300,2013-06-09 06:58:00